Location: ??????
(41.3794°N, 22.5014°E)
Time: 08:08:38
(UTC+00:00)

CZ-2C R/B - Pass Details

Date: 30 November 2020
Orbit: 705 x 907 km, 98.1° (Epoch: 17 January)

Event Time Altitude Azimuth Distance (km) Brightness Sun altitude
Rises 15:57:52 0° 129° (SE) 3,235 5.9 -10.5°
Reaches altitude 10° 16:00:41 10° 114° (ESE) 2,279 5.0 -11.0°
Maximum altitude 16:04:22 21° 66° (ENE) 1,610 4.0 -11.6°
Drops below altitude 10° 16:07:59 10° 17° (NNE) 2,219 5.1 -12.2°
Sets 16:10:40 0° 2° (N) 3,126 6.0 -12.7°
